Tracking 17630 objects as of 25-May-2016
HD Live streaming from Space Station
objects crossing your sky now

ARIANE 44LP DEB

Track ARIANE 44LP DEB now!
10-day predictions


NORAD ID: 27662
Int'l Code: 1991-015N
Perigee: 443.6 km
Apogee: 24,058.6 km
Inclination: 6.0 °
Period: 421.5 minutes
Semi major axis: 18622 km
RCS: 0.2322 m2 (medium)
Launch date: March 2, 1991
Source: France (FR)
Launch site: FRENCH GUIANA (FRGUI)

Note: This is SATELLITE DEBRIS
Your satellite tracking list
Your tracking list is empty





NASA's NSSDC Master Catalog

Two Line Element Set (TLE):
1 27662U 91015N   16144.38055706  .00000006  00000-0  26813-3 0  9998
2 27662   6.0223  60.2796 6340566 235.7049  47.3830  3.41633151199199
Source of the keplerian elements: AFSPC

N2YO: 626